SPITFR1 EGKK-EGTK

Flight info

Callsign SPITFR1
Flight time N/A
Altitude 6000
Route EGKK KENET DCT BUGUP EGTK
Aircraft SPIT/L-SDGRY/S

Departure

Time 2026-04-14 14:48
Airport London Gatwick Airport (EGKK)

Arrival

Time N/A
Airport London Oxford Airport (EGTK)
Time Latitude Longitude Altitude Speed Heading
2026-04-14 14:28 51.15337 -0.19856 201 ft 0 kts 257°
2026-04-14 14:37 51.15337 -0.19855 212 ft 0 kts 160°
2026-04-14 14:41 51.15339 -0.19840 201 ft 6 kts 76°
2026-04-14 14:41 51.15338 -0.19706 205 ft 17 kts 133°
2026-04-14 14:41 51.15224 -0.19628 202 ft 18 kts 168°
2026-04-14 14:41 51.15100 -0.19586 202 ft 18 kts 169°
2026-04-14 14:42 51.15026 -0.19484 202 ft 16 kts 77°
2026-04-14 14:42 51.15055 -0.19295 202 ft 19 kts 77°
2026-04-14 14:42 51.15085 -0.19069 202 ft 23 kts 79°
2026-04-14 14:42 51.15118 -0.18804 204 ft 26 kts 79°
2026-04-14 14:43 51.15161 -0.18510 205 ft 29 kts 79°
2026-04-14 14:43 51.15201 -0.18190 202 ft 29 kts 75°
2026-04-14 14:43 51.15240 -0.17896 202 ft 26 kts 76°
2026-04-14 14:43 51.15168 -0.17770 208 ft 15 kts 175°
2026-04-14 14:44 51.15125 -0.17763 202 ft 0 kts 173°
2026-04-14 14:47 51.15116 -0.17761 202 ft 9 kts 174°
2026-04-14 14:47 51.15005 -0.17908 215 ft 33 kts 238°
2026-04-14 14:47 51.14944 -0.18089 205 ft 2 kts 258°
2026-04-14 14:47 51.14867 -0.18505 209 ft 81 kts 256°
2026-04-14 14:48 51.14736 -0.19746 462 ft 141 kts 255°
2026-04-14 14:48 51.14518 -0.21438 1228 ft 143 kts 250°
2026-04-14 14:48 51.14274 -0.23064 2124 ft 161 kts 248°
2026-04-14 14:48 51.14027 -0.25093 2148 ft 214 kts 269°
2026-04-14 14:49 51.14923 -0.27177 2198 ft 249 kts 320°
2026-04-14 14:49 51.16405 -0.28678 2138 ft 266 kts 327°
2026-04-14 14:49 51.18053 -0.30172 2031 ft 275 kts 329°
2026-04-14 14:49 51.19731 -0.31607 2198 ft 271 kts 330°
2026-04-14 14:50 51.21448 -0.32964 2144 ft 277 kts 332°
2026-04-14 14:50 51.23170 -0.34281 2416 ft 271 kts 332°
2026-04-14 14:50 51.24916 -0.35602 2268 ft 281 kts 332°
2026-04-14 14:50 51.26700 -0.36934 2161 ft 283 kts 332°
2026-04-14 14:51 51.28135 -0.38933 2093 ft 274 kts 296°
2026-04-14 14:51 51.28744 -0.41737 2099 ft 264 kts 282°
2026-04-14 14:51 51.29238 -0.44507 2447 ft 255 kts 281°
2026-04-14 14:51 51.29712 -0.47176 2533 ft 259 kts 281°
2026-04-14 14:52 51.30128 -0.49750 2206 ft 252 kts 279°
2026-04-14 14:52 51.30547 -0.52585 1934 ft 266 kts 278°
2026-04-14 14:52 51.30948 -0.55478 1903 ft 266 kts 278°
2026-04-14 14:52 51.31344 -0.58357 1871 ft 266 kts 277°
2026-04-14 14:53 51.31704 -0.61230 2015 ft 261 kts 277°
2026-04-14 14:53 51.32060 -0.64084 2074 ft 261 kts 277°
2026-04-14 14:53 51.32431 -0.66909 2141 ft 260 kts 277°
2026-04-14 14:53 51.32841 -0.69741 2188 ft 261 kts 279°
2026-04-14 14:54 51.33276 -0.72557 2253 ft 261 kts 279°
2026-04-14 14:54 51.33795 -0.75345 2286 ft 264 kts 293°
2026-04-14 14:54 51.35064 -0.77506 2347 ft 268 kts 314°
2026-04-14 14:54 51.36440 -0.79539 2469 ft 269 kts 313°
2026-04-14 14:55 51.37813 -0.81603 2467 ft 272 kts 313°
2026-04-14 14:55 51.39170 -0.83643 2494 ft 272 kts 313°
2026-04-14 14:55 51.40568 -0.85699 2531 ft 273 kts 314°
2026-04-14 14:55 51.41995 -0.87768 2466 ft 279 kts 314°
2026-04-14 14:56 51.44819 -0.91893 2936 ft 269 kts 313°
2026-04-14 14:56 51.46145 -0.93966 3203 ft 266 kts 310°
2026-04-14 14:56 51.47139 -0.95834 3719 ft 220 kts 302°
2026-04-14 14:57 51.48216 -0.98143 3230 ft 272 kts 302°
2026-04-14 14:57 51.49509 -1.00408 2889 ft 288 kts 318°
2026-04-14 14:57 51.51132 -1.02317 2746 ft 288 kts 320°
2026-04-14 14:57 51.52218 -1.03625 2597 ft 290 kts 319°